Location: Newark
(44.6768°N, 22.5302°E)
Time: 13:19:19
(UTC+00:00)

AO-92 - Pass Details

Date: 30 June 2022
Orbit: 469 x 481 km, 97.4° (Epoch: 17 August)

Event Time Altitude Azimuth Distance (km) Brightness Sun altitude
Exits shadow 21:43:54 11° 255° (WSW) 1,593 ? -21.2°
Maximum altitude 21:44:46 12° 270° (W) 1,550 ? -21.3°
Drops below altitude 10° 21:46:07 10° 292° (WNW) 1,659 ? -21.3°
Sets 21:49:26 0° 326° (NW) 2,551 ? -21.4°
